| time (UTC) | temp F | wind direction | speed MPH | gust MPH | rain 1hr in | rain 24hr in | rain mn in | humidity % | barometer mb |
| 20260903143305 | 78 | 249 | 2.0 | 6.0 | 0.00 | 0.35 | 0.00 | 93 | 1014.5 |
| 20260903142804 | 77 | 244 | 5.0 | 10.0 | 0.00 | 0.35 | 0.00 | 93 | 1014.6 |
| 20260903141804 | 77 | 204 | 2.0 | 12.0 | 0.00 | 0.35 | 0.00 | 94 | 1014.6 |
| 20260903141305 | 77 | 223 | 4.0 | 10.0 | 0.00 | 0.35 | 0.00 | 95 | 1014.7 |
| 20260903140805 | 77 | 213 | 3.0 | 9.0 | 0.00 | 0.35 | 0.00 | 95 | 1014.6 |
| 20260903140305 | 77 | 189 | 5.0 | 10.0 | 0.00 | 0.35 | 0.00 | 96 | 1014.4 |
| 20260903135804 | 76 | 192 | 5.0 | 10.0 | 0.00 | 0.35 | 0.00 | 96 | 1014.4 |
| 20260903135306 | 76 | 181 | 6.0 | 12.0 | 0.00 | 0.35 | 0.00 | 96 | 1014.4 |
| 20260903134805 | 76 | 174 | 3.0 | 7.0 | 0.00 | 0.35 | 0.00 | 96 | 1014.5 |
| 20260903134305 | 75 | 211 | 6.0 | 10.0 | 0.00 | 0.35 | 0.00 | 96 | 1014.6 |
| 20260903133805 | 75 | 197 | 5.0 | 10.0 | 0.00 | 0.35 | 0.00 | 96 | 1014.1 |
| 20260903133305 | 75 | 171 | 5.0 | 9.0 | 0.00 | 0.35 | 0.00 | 96 | 1014.2 |
| 20260903132804 | 75 | 158 | 5.0 | 8.0 | 0.00 | 0.35 | 0.00 | 96 | 1014.0 |
| 20260903132306 | 75 | 141 | 2.0 | 3.0 | 0.00 | 0.35 | 0.00 | 96 | 1014.6 |
| 20260903131805 | 75 | 196 | 0.0 | 5.0 | 0.00 | 0.35 | 0.00 | 96 | 1015.2 |
| 20260903131304 | 75 | 239 | 3.0 | 5.0 | 0.00 | 0.35 | 0.00 | 96 | 1015.2 |
| 20260903130805 | 75 | 190 | 4.0 | 8.0 | 0.00 | 0.35 | 0.00 | 96 | 1015.0 |
| 20260903130304 | 75 | 196 | 4.0 | 7.0 | 0.00 | 0.35 | 0.00 | 96 | 1015.0 |
| 20260903125804 | 75 | 198 | 4.0 | 7.0 | 0.00 | 0.35 | 0.00 | 96 | 1015.3 |
| 20260903125305 | 75 | 203 | 3.0 | 5.0 | 0.00 | 0.35 | 0.00 | 96 | 1015.5 |
| 20260903124804 | 75 | 174 | 3.0 | 3.0 | 0.00 | 0.35 | 0.00 | 96 | 1015.6 |
| 20260903124305 | 75 | 170 | 3.0 | 7.0 | 0.00 | 0.35 | 0.00 | 96 | 1015.7 |
| 20260903123805 | 75 | 190 | 3.0 | 7.0 | 0.00 | 0.35 | 0.00 | 96 | 1015.7 |
| 20260903123304 | 75 | 194 | 4.0 | 8.0 | 0.00 | 0.35 | 0.00 | 96 | 1015.8 |
| 20260903121804 | 74 | 185 | 1.0 | 3.0 | 0.00 | 0.35 | 0.00 | 96 | 1015.9 |
| 20260903121304 | 74 | 177 | 4.0 | 6.0 | 0.00 | 0.35 | 0.00 | 96 | 1015.9 |
| 20260903120805 | 74 | 117 | 1.0 | 3.0 | 0.00 | 0.35 | 0.00 | 96 | 1016.1 |
| 20260903120304 | 74 | 99 | 1.0 | 3.0 | 0.00 | 0.35 | 0.00 | 96 | 1016.1 |
| 20260903115804 | 74 | 99 | 1.0 | 3.0 | 0.00 | 0.35 | 0.00 | 96 | 1016.2 |
| 20260903114805 | 74 | 6 | 1.0 | 3.0 | 0.00 | 0.35 | 0.00 | 96 | 1016.5 |
| 20260903114304 | 74 | 6 | 2.0 | 3.0 | 0.00 | 0.35 | 0.00 | 96 | 1016.5 |
| 20260903113804 | 74 | 6 | 1.0 | 5.0 | 0.00 | 0.35 | 0.00 | 96 | 1016.8 |
| 20260903113304 | 74 | 10 | 4.0 | 7.0 | 0.00 | 0.35 | 0.00 | 96 | 1016.9 |
| 20260903112804 | 74 | 14 | 5.0 | 8.0 | 0.00 | 0.35 | 0.00 | 96 | 1016.9 |
| 20260903111804 | 74 | 1 | 5.0 | 12.0 | 0.00 | 0.35 | 0.00 | 96 | 1016.7 |
| 20260903111304 | 74 | 7 | 6.0 | 12.0 | 0.00 | 0.35 | 0.00 | 96 | 1016.7 |
| 20260903110804 | 74 | 2 | 8.0 | 12.0 | 0.00 | 0.35 | 0.00 | 96 | 1016.5 |
| 20260903105306 | 74 | 18 | 2.0 | 3.0 | 0.00 | 0.35 | 0.00 | 96 | 1015.7 |
| 20260903104806 | 74 | 43 | 2.0 | 3.0 | 0.00 | 0.35 | 0.00 | 96 | 1015.7 |
| 20260903104304 | 74 | 5 | 3.0 | 5.0 | 0.00 | 0.35 | 0.00 | 96 | 1015.8 |
| 20260903103804 | 74 | 13 | 3.0 | 5.0 | 0.00 | 0.35 | 0.00 | 96 | 1015.7 |
| 20260903103305 | 74 | 13 | 2.0 | 3.0 | 0.00 | 0.35 | 0.00 | 96 | 1015.5 |
| 20260903102306 | 74 | 13 | 1.0 | 2.0 | 0.00 | 0.35 | 0.00 | 96 | 1015.4 |
| 20260903101805 | 74 | 13 | 2.0 | 3.0 | 0.00 | 0.35 | 0.00 | 96 | 1015.5 |
| 20260903100804 | 74 | 13 | 1.0 | 2.0 | 0.00 | 0.35 | 0.00 | 96 | 1015.3 |
| 20260903100304 | 74 | 13 | 2.0 | 3.0 | 0.00 | 0.35 | 0.00 | 96 | 1015.4 |
| 20260903095806 | 73 | 24 | 0.0 | 2.0 | 0.00 | 0.35 | 0.00 | 96 | 1015.3 |
| 20260903095306 | 73 | 24 | 4.0 | 8.0 | 0.00 | 0.35 | 0.00 | 96 | 1015.4 |
| 20260903093804 | 73 | 2 | 6.0 | 10.0 | 0.00 | 0.35 | 0.00 | 96 | 1015.3 |
| 20260903093304 | 73 | 129 | 1.0 | 2.0 | 0.00 | 0.35 | 0.00 | 96 | 1014.8 |
| 20260903092805 | 73 | 129 | 1.0 | 3.0 | 0.00 | 0.35 | 0.00 | 96 | 1014.9 |
| 20260903092307 | 73 | 129 | 1.0 | 2.0 | 0.00 | 0.35 | 0.00 | 96 | 1014.8 |
| 20260903091805 | 73 | 129 | 0.0 | 1.0 | 0.00 | 0.35 | 0.00 | 96 | 1014.9 |
| 20260903091306 | 73 | 129 | 1.0 | 2.0 | 0.00 | 0.35 | 0.00 | 96 | 1014.9 |
| 20260903090805 | 73 | 129 | 1.0 | 3.0 | 0.00 | 0.35 | 0.00 | 96 | 1014.9 |
| 20260903090306 | 73 | 129 | 1.0 | 2.0 | 0.00 | 0.35 | 0.00 | 96 | 1015.0 |
| 20260903085804 | 73 | 129 | 0.0 | 1.0 | 0.00 | 0.35 | 0.00 | 96 | 1015.1 |
| 20260903085306 | 73 | 129 | 0.0 | 0.0 | 0.00 | 0.35 | 0.00 | 96 | 1015.1 |
| 20260903084804 | 73 | 129 | 0.0 | 1.0 | 0.00 | 0.35 | 0.00 | 96 | 1015.1 |
| 20260903083305 | 73 | 129 | 0.0 | 2.0 | 0.00 | 0.35 | 0.00 | 96 | 1015.0 |
| 20260903082805 | 73 | 129 | 1.0 | 2.0 | 0.00 | 0.35 | 0.00 | 96 | 1014.9 |
| 20260903082306 | 73 | 129 | 1.0 | 2.0 | 0.00 | 0.35 | 0.00 | 96 | 1015.0 |
| 20260903081804 | 73 | 129 | 0.0 | 2.0 | 0.00 | 0.35 | 0.00 | 96 | 1015.0 |
| 20260903081305 | 73 | 129 | 1.0 | 3.0 | 0.00 | 0.35 | 0.00 | 96 | 1014.9 |
| 20260903080804 | 73 | 12 | 0.0 | 3.0 | 0.00 | 0.35 | 0.00 | 96 | 1015.0 |
| 20260903080304 | 73 | 12 | 3.0 | 5.0 | 0.00 | 0.35 | 0.00 | 96 | 1015.3 |
| 20260903075804 | 73 | 9 | 3.0 | 5.0 | 0.00 | 0.35 | 0.00 | 96 | 1015.2 |
| 20260903075306 | 73 | 97 | 0.0 | 0.0 | 0.00 | 0.35 | 0.00 | 95 | 1015.1 |
| 20260903074804 | 73 | 97 | 0.0 | 0.0 | 0.00 | 0.35 | 0.00 | 95 | 1014.9 |
| 20260903074304 | 73 | 97 | 0.0 | 1.0 | 0.00 | 0.35 | 0.00 | 95 | 1015.0 |
| 20260903073805 | 73 | 97 | 0.0 | 1.0 | 0.00 | 0.35 | 0.00 | 95 | 1015.2 |
| 20260903073305 | 73 | 97 | 1.0 | 2.0 | 0.00 | 0.35 | 0.00 | 95 | 1015.0 |
| 20260903072805 | 73 | 97 | 1.0 | 2.0 | 0.00 | 0.35 | 0.00 | 95 | 1014.9 |
| 20260903072306 | 73 | 97 | 1.0 | 2.0 | 0.00 | 0.35 | 0.00 | 95 | 1015.1 |
| 20260903071804 | 73 | 110 | 1.0 | 3.0 | 0.00 | 0.35 | 0.00 | 95 | 1015.0 |
| 20260903071304 | 73 | 54 | 2.0 | 3.0 | 0.00 | 0.35 | 0.00 | 95 | 1015.1 |
| 20260903070804 | 73 | 94 | 2.0 | 3.0 | 0.00 | 0.35 | 0.00 | 95 | 1015.0 |
| 20260903065306 | 73 | 195 | 1.0 | 3.0 | 0.00 | 0.35 | 0.00 | 95 | 1014.7 |
| 20260903064804 | 73 | 189 | 2.0 | 3.0 | 0.00 | 0.35 | 0.00 | 95 | 1014.6 |
| 20260903064304 | 73 | 210 | 2.0 | 5.0 | 0.00 | 0.35 | 0.00 | 95 | 1014.5 |
| 20260903063805 | 73 | 171 | 2.0 | 3.0 | 0.00 | 0.35 | 0.00 | 95 | 1014.5 |
| 20260903063305 | 73 | 192 | 2.0 | 3.0 | 0.00 | 0.35 | 0.00 | 95 | 1014.5 |
| 20260903062805 | 73 | 177 | 2.0 | 3.0 | 0.00 | 0.35 | 0.00 | 95 | 1014.5 |
| 20260903062306 | 73 | 180 | 2.0 | 5.0 | 0.00 | 0.35 | 0.00 | 95 | 1014.5 |
| 20260903061804 | 73 | 235 | 1.0 | 3.0 | 0.00 | 0.35 | 0.00 | 95 | 1014.7 |
| 20260903061305 | 72 | 235 | 0.0 | 1.0 | 0.00 | 0.35 | 0.00 | 95 | 1014.8 |
| 20260903060805 | 72 | 235 | 0.0 | 1.0 | 0.00 | 0.35 | 0.00 | 94 | 1014.8 |
| 20260903060305 | 73 | 235 | 0.0 | 1.0 | 0.00 | 0.35 | 0.00 | 94 | 1014.7 |
| 20260903055804 | 73 | 235 | 0.0 | 1.0 | 0.00 | 0.35 | 0.00 | 94 | 1014.6 |
| 20260903054804 | 73 | 235 | 1.0 | 2.0 | 0.00 | 0.35 | 0.00 | 94 | 1014.8 |
| 20260903054304 | 73 | 235 | 1.0 | 3.0 | 0.00 | 0.35 | 0.00 | 94 | 1014.8 |
| 20260903052307 | 72 | 23 | 2.0 | 3.0 | 0.00 | 0.35 | 0.00 | 94 | 1015.1 |
| 20260903051805 | 72 | 23 | 1.0 | 1.0 | 0.00 | 0.35 | 0.00 | 94 | 1015.2 |
| 20260903051305 | 72 | 23 | 0.0 | 0.0 | 0.00 | 0.35 | 0.00 | 94 | 1015.1 |
| 20260903050805 | 72 | 23 | 0.0 | 0.0 | 0.00 | 0.35 | 0.00 | 94 | 1015.1 |
| 20260903050304 | 72 | 23 | 1.0 | 2.0 | 0.00 | 0.35 | 0.00 | 94 | 1015.1 |
| 20260903045804 | 73 | 23 | 0.0 | 1.0 | 0.00 | 0.35 | 0.00 | 94 | 1015.2 |
| 20260903045306 | 73 | 23 | 1.0 | 2.0 | 0.00 | 0.35 | 0.00 | 94 | 1015.0 |
| 20260903044804 | 73 | 23 | 1.0 | 2.0 | 0.00 | 0.35 | 0.00 | 93 | 1015.0 |
| 20260903044304 | 73 | 23 | 0.0 | 0.0 | 0.00 | 0.35 | 0.00 | 93 | 1015.2 |
| 20260903043804 | 73 | 23 | 1.0 | 3.0 | 0.00 | 0.35 | 0.00 | 93 | 1015.3 |
| 20260903042804 | 73 | 180 | 0.0 | 1.0 | 0.00 | 0.35 | 0.00 | 93 | 1015.0 |
| 20260903042306 | 73 | 180 | 1.0 | 1.0 | 0.00 | 0.35 | 0.00 | 93 | 1015.2 |
| 20260903041804 | 73 | 180 | 0.0 | 2.0 | 0.00 | 0.35 | 0.00 | 93 | 1015.2 |
| 20260903040804 | 73 | 180 | 0.0 | 0.0 | 0.00 | 0.35 | 0.00 | 93 | 1015.6 |
| 20260903040304 | 73 | 180 | 0.0 | 2.0 | 0.00 | 0.35 | 0.00 | 93 | 1015.7 |
| 20260903035805 | 73 | 180 | 1.0 | 2.0 | 0.00 | 0.35 | 0.35 | 93 | 1015.8 |
| 20260903035306 | 73 | 180 | 1.0 | 1.0 | 0.00 | 0.35 | 0.35 | 93 | 1015.9 |
| 20260903034305 | 73 | 180 | 1.0 | 2.0 | 0.00 | 0.35 | 0.35 | 93 | 1015.9 |
| 20260903033305 | 73 | 180 | 0.0 | 2.0 | 0.00 | 0.35 | 0.35 | 93 | 1015.9 |
| 20260903032805 | 73 | 180 | 1.0 | 2.0 | 0.00 | 0.35 | 0.35 | 93 | 1015.7 |
| 20260903032306 | 73 | 180 | 1.0 | 2.0 | 0.00 | 0.35 | 0.35 | 93 | 1015.7 |
| 20260903031805 | 73 | 180 | 0.0 | 2.0 | 0.00 | 0.35 | 0.35 | 93 | 1015.8 |
| 20260903030804 | 73 | 180 | 1.0 | 2.0 | 0.00 | 0.35 | 0.35 | 93 | 1015.5 |
| 20260903030305 | 73 | 168 | 1.0 | 3.0 | 0.00 | 0.35 | 0.35 | 93 | 1015.5 |
| 20260903025805 | 73 | 142 | 1.0 | 2.0 | 0.00 | 0.35 | 0.35 | 93 | 1015.6 |
| 20260903025306 | 73 | 142 | 0.0 | 3.0 | 0.00 | 0.35 | 0.35 | 93 | 1015.6 |
| 20260903024305 | 73 | 142 | 0.0 | 3.0 | 0.00 | 0.35 | 0.35 | 92 | 1015.8 |
| 20260903023305 | 73 | 146 | 2.0 | 3.0 | 0.00 | 0.35 | 0.35 | 92 | 1015.7 |
| 20260903022306 | 73 | 180 | 1.0 | 3.0 | 0.00 | 0.35 | 0.35 | 92 | 1015.9 |
| 20260903021804 | 73 | 180 | 1.0 | 2.0 | 0.00 | 0.35 | 0.35 | 92 | 1015.9 |
| 20260903021304 | 73 | 180 | 2.0 | 3.0 | 0.00 | 0.35 | 0.35 | 92 | 1016.0 |
| 20260903020804 | 73 | 180 | 1.0 | 2.0 | 0.00 | 0.35 | 0.35 | 92 | 1016.0 |
| 20260903020305 | 73 | 180 | 0.0 | 2.0 | 0.00 | 0.35 | 0.35 | 92 | 1016.0 |
| 20260903015805 | 73 | 180 | 1.0 | 3.0 | 0.00 | 0.35 | 0.35 | 92 | 1015.8 |
| 20260903015306 | 73 | 180 | 0.0 | 3.0 | 0.00 | 0.35 | 0.35 | 92 | 1015.7 |
| 20260903014804 | 73 | 180 | 0.0 | 3.0 | 0.00 | 0.35 | 0.35 | 92 | 1015.5 |
| 20260903014304 | 73 | 180 | 3.0 | 5.0 | 0.00 | 0.35 | 0.35 | 91 | 1015.5 |
| 20260903013804 | 73 | 137 | 1.0 | 3.0 | 0.00 | 0.35 | 0.35 | 92 | 1015.7 |
| 20260903012804 | 74 | 137 | 1.0 | 2.0 | 0.00 | 0.35 | 0.35 | 91 | 1015.9 |
| 20260903012306 | 74 | 126 | 0.0 | 2.0 | 0.00 | 0.35 | 0.35 | 91 | 1015.8 |
| 20260903011804 | 74 | 126 | 1.0 | 2.0 | 0.00 | 0.35 | 0.35 | 91 | 1015.7 |
| 20260903010804 | 74 | 134 | 0.0 | 3.0 | 0.00 | 0.35 | 0.35 | 91 | 1015.4 |
| 20260903010304 | 74 | 134 | 1.0 | 3.0 | 0.00 | 0.35 | 0.35 | 91 | 1015.3 |
| 20260903005804 | 74 | 134 | 2.0 | 3.0 | 0.00 | 0.35 | 0.35 | 90 | 1015.2 |
| 20260903005306 | 74 | 122 | 0.0 | 2.0 | 0.00 | 0.35 | 0.35 | 90 | 1015.1 |
| 20260903004305 | 74 | 16 | 0.0 | 1.0 | 0.00 | 0.35 | 0.35 | 90 | 1015.2 |
| 20260903003805 | 74 | 16 | 0.0 | 2.0 | 0.00 | 0.35 | 0.35 | 90 | 1015.4 |
| 20260903003304 | 74 | 16 | 3.0 | 3.0 | 0.00 | 0.35 | 0.35 | 90 | 1015.5 |
| 20260903002804 | 74 | 152 | 0.0 | 0.0 | 0.00 | 0.35 | 0.35 | 90 | 1015.5 |
| 20260903002306 | 75 | 152 | 0.0 | 0.0 | 0.00 | 0.35 | 0.35 | 89 | 1015.3 |
| 20260903001804 | 75 | 152 | 0.0 | 0.0 | 0.00 | 0.35 | 0.35 | 89 | 1015.4 |
| 20260903001304 | 75 | 152 | 0.0 | 0.0 | 0.00 | 0.35 | 0.35 | 89 | 1015.4 |
| 20260903000804 | 75 | 152 | 0.0 | 0.0 | 0.00 | 0.35 | 0.35 | 88 | 1015.2 |
| 20260903000304 | 75 | 152 | 0.0 | 0.0 | 0.00 | 0.35 | 0.35 | 88 | 1015.2 |
| 20260902235804 | 75 | 152 | 0.0 | 0.0 | 0.00 | 0.35 | 0.35 | 88 | 1015.5 |
| 20260902235306 | 75 | 152 | 0.0 | 0.0 | 0.00 | 0.35 | 0.35 | 88 | 1015.5 |
| 20260902234805 | 75 | 152 | 0.0 | 0.0 | 0.00 | 0.35 | 0.35 | 88 | 1015.4 |
| 20260902234304 | 75 | 152 | 0.0 | 0.0 | 0.00 | 0.35 | 0.35 | 88 | 1015.5 |
| 20260902233804 | 75 | 152 | 0.0 | 1.0 | 0.00 | 0.35 | 0.35 | 87 | 1015.4 |
| 20260902233304 | 75 | 152 | 0.0 | 0.0 | 0.00 | 0.35 | 0.35 | 87 | 1015.6 |
| 20260902232804 | 75 | 152 | 0.0 | 3.0 | 0.00 | 0.35 | 0.35 | 87 | 1015.6 |
| 20260902232306 | 75 | 152 | 1.0 | 2.0 | 0.00 | 0.35 | 0.35 | 87 | 1015.5 |
| 20260902231804 | 75 | 152 | 0.0 | 2.0 | 0.00 | 0.35 | 0.35 | 87 | 1015.4 |
| 20260902231304 | 76 | 237 | 0.0 | 2.0 | 0.00 | 0.35 | 0.35 | 87 | 1015.5 |
| 20260902230804 | 76 | 237 | 1.0 | 2.0 | 0.00 | 0.35 | 0.35 | 87 | 1015.6 |
| 20260902230304 | 76 | 237 | 0.0 | 2.0 | 0.00 | 0.35 | 0.35 | 87 | 1015.7 |
| 20260902225804 | 76 | 237 | 0.0 | 1.0 | 0.00 | 0.35 | 0.35 | 87 | 1015.7 |
| 20260902225306 | 76 | 237 | 0.0 | 1.0 | 0.00 | 0.35 | 0.35 | 87 | 1015.9 |
| 20260902224804 | 76 | 237 | 1.0 | 3.0 | 0.00 | 0.35 | 0.35 | 87 | 1015.7 |
| 20260902224304 | 76 | 158 | 1.0 | 3.0 | 0.00 | 0.35 | 0.35 | 87 | 1015.5 |
| 20260902223305 | 76 | 176 | 1.0 | 3.0 | 0.00 | 0.35 | 0.35 | 88 | 1015.5 |
| 20260902222805 | 76 | 183 | 2.0 | 3.0 | 0.00 | 0.35 | 0.35 | 88 | 1015.4 |
| 20260902222306 | 76 | 217 | 1.0 | 3.0 | 0.00 | 0.35 | 0.35 | 88 | 1015.4 |
| 20260902221805 | 76 | 191 | 2.0 | 5.0 | 0.00 | 0.35 | 0.35 | 88 | 1015.5 |
| 20260902221305 | 76 | 185 | 3.0 | 5.0 | 0.00 | 0.35 | 0.35 | 88 | 1015.5 |
| 20260902220804 | 76 | 187 | 2.0 | 3.0 | 0.00 | 0.35 | 0.35 | 89 | 1015.5 |
| 20260902220304 | 76 | 188 | 2.0 | 5.0 | 0.00 | 0.35 | 0.35 | 89 | 1015.6 |
| 20260902215804 | 76 | 204 | 2.0 | 3.0 | 0.00 | 0.35 | 0.35 | 90 | 1015.7 |
| 20260902215306 | 76 | 173 | 1.0 | 3.0 | 0.00 | 0.35 | 0.35 | 90 | 1015.7 |
| 20260902214304 | 76 | 169 | 1.0 | 3.0 | 0.00 | 0.35 | 0.35 | 91 | 1016.0 |
| 20260902213804 | 75 | 162 | 1.0 | 3.0 | 0.00 | 0.35 | 0.35 | 91 | 1016.2 |
| 20260902212804 | 75 | 280 | 1.0 | 3.0 | 0.00 | 0.35 | 0.35 | 92 | 1016.1 |
| 20260902212306 | 75 | 289 | 1.0 | 3.0 | 0.00 | 0.35 | 0.35 | 92 | 1016.2 |
| 20260902211804 | 75 | 289 | 0.0 | 2.0 | 0.00 | 0.35 | 0.35 | 92 | 1016.1 |
| 20260902211304 | 75 | 289 | 0.0 | 0.0 | 0.00 | 0.35 | 0.35 | 92 | 1016.1 |
| 20260902205805 | 75 | 289 | 1.0 | 3.0 | 0.00 | 0.35 | 0.35 | 92 | 1016.1 |
| 20260902205306 | 75 | 289 | 1.0 | 2.0 | 0.00 | 0.35 | 0.35 | 92 | 1016.0 |
| 20260902204305 | 75 | 354 | 0.0 | 2.0 | 0.00 | 0.35 | 0.35 | 92 | 1015.9 |
| 20260902203805 | 75 | 348 | 1.0 | 2.0 | 0.00 | 0.35 | 0.35 | 93 | 1016.0 |
| 20260902203304 | 74 | 293 | 0.0 | 1.0 | 0.00 | 0.35 | 0.35 | 93 | 1016.0 |
| 20260902202804 | 74 | 293 | 0.0 | 3.0 | 0.00 | 0.35 | 0.35 | 93 | 1016.2 |
| 20260902202306 | 74 | 221 | 0.0 | 2.0 | 0.00 | 0.35 | 0.35 | 93 | 1016.2 |
| 20260902201304 | 74 | 196 | 1.0 | 3.0 | 0.00 | 0.35 | 0.35 | 93 | 1016.2 |
| 20260902200804 | 74 | 198 | 3.0 | 5.0 | 0.00 | 0.35 | 0.35 | 93 | 1016.2 |
| 20260902200304 | 74 | 189 | 1.0 | 3.0 | 0.00 | 0.35 | 0.35 | 93 | 1016.0 |
| 20260902195805 | 74 | 218 | 2.0 | 3.0 | 0.00 | 0.35 | 0.35 | 94 | 1015.7 |
| 20260902195306 | 74 | 204 | 1.0 | 3.0 | 0.00 | 0.35 | 0.35 | 93 | 1015.6 |
| 20260902194804 | 74 | 181 | 1.0 | 3.0 | 0.00 | 0.35 | 0.35 | 94 | 1015.5 |
| 20260902194304 | 74 | 325 | 1.0 | 3.0 | 0.00 | 0.35 | 0.35 | 94 | 1015.5 |
| 20260902193804 | 74 | 325 | 0.0 | 1.0 | 0.00 | 0.35 | 0.35 | 94 | 1015.5 |
| 20260902193304 | 74 | 325 | 2.0 | 3.0 | 0.00 | 0.35 | 0.35 | 94 | 1015.4 |
| 20260902192804 | 74 | 325 | 1.0 | 3.0 | 0.00 | 0.35 | 0.35 | 94 | 1015.4 |
| 20260902192307 | 74 | 103 | 1.0 | 3.0 | 0.00 | 0.35 | 0.35 | 94 | 1015.0 |
| 20260902191805 | 74 | 51 | 1.0 | 3.0 | 0.00 | 0.35 | 0.35 | 94 | 1015.1 |
| 20260902191305 | 74 | 14 | 1.0 | 2.0 | 0.00 | 0.35 | 0.35 | 94 | 1015.3 |
| 20260902190805 | 74 | 0 | 1.0 | 3.0 | 0.00 | 0.35 | 0.35 | 94 | 1015.6 |
| 20260902185804 | 73 | 281 | 1.0 | 3.0 | 0.00 | 0.35 | 0.35 | 93 | 1016.0 |
| 20260902185306 | 73 | 255 | 1.0 | 3.0 | 0.01 | 0.35 | 0.35 | 93 | 1016.2 |
| 20260902184804 | 73 | 224 | 2.0 | 3.0 | 0.01 | 0.35 | 0.35 | 93 | 1016.3 |
| 20260902184304 | 73 | 137 | 1.0 | 3.0 | 0.01 | 0.35 | 0.35 | 93 | 1016.2 |
| 20260902183304 | 73 | 137 | 0.0 | 2.0 | 0.01 | 0.35 | 0.35 | 92 | 1016.3 |
| 20260902182804 | 73 | 137 | 0.0 | 1.0 | 0.03 | 0.35 | 0.35 | 92 | 1016.4 |
| 20260902181804 | 73 | 137 | 0.0 | 1.0 | 0.09 | 0.35 | 0.35 | 92 | 1016.5 |
| 20260902181304 | 73 | 137 | 0.0 | 2.0 | 0.12 | 0.35 | 0.35 | 92 | 1016.7 |
| 20260902180804 | 73 | 137 | 2.0 | 3.0 | 0.21 | 0.35 | 0.35 | 91 | 1016.9 |
| 20260902175307 | 73 | 171 | 1.0 | 3.0 | 0.34 | 0.34 | 0.34 | 90 | 1018.1 |
| 20260902174804 | 73 | 168 | 2.0 | 3.0 | 0.34 | 0.34 | 0.34 | 90 | 1018.2 |
| 20260902174304 | 74 | 227 | 2.0 | 6.0 | 0.34 | 0.34 | 0.34 | 89 | 1018.0 |
| 20260902173304 | 75 | 266 | 2.0 | 6.0 | 0.34 | 0.34 | 0.34 | 87 | 1018.1 |
| 20260902172805 | 75 | 302 | 2.0 | 8.0 | 0.32 | 0.32 | 0.32 | 86 | 1018.2 |
| 20260902172308 | 76 | 341 | 5.0 | 9.0 | 0.29 | 0.29 | 0.29 | 85 | 1019.0 |
| 20260902171804 | 77 | 1 | 8.0 | 15.0 | 0.26 | 0.26 | 0.26 | 84 | 1019.5 |
| 20260902170804 | 81 | 0 | 16.0 | 26.0 | 0.14 | 0.14 | 0.14 | 80 | 1020.1 |
| 20260902170305 | 81 | 10 | 8.0 | 13.0 | 0.00 | 0.00 | 0.00 | 78 | 1019.0 |
| 20260902164804 | 82 | 89 | 3.0 | 7.0 | 0.00 | 0.00 | 0.00 | 78 | 1017.7 |
| 20260902164304 | 81 | 51 | 3.0 | 7.0 | 0.00 | 0.00 | 0.00 | 79 | 1017.5 |
| 20260902163804 | 81 | 132 | 1.0 | 7.0 | 0.00 | 0.00 | 0.00 | 78 | 1017.3 |
| 20260902162805 | 81 | 119 | 5.0 | 12.0 | 0.00 | 0.00 | 0.00 | 79 | 1017.2 |
| 20260902162307 | 81 | 146 | 2.0 | 9.0 | 0.00 | 0.00 | 0.00 | 79 | 1017.1 |
| 20260902161804 | 81 | 116 | 6.0 | 13.0 | 0.00 | 0.00 | 0.00 | 79 | 1017.2 |
| 20260902161305 | 81 | 169 | 3.0 | 9.0 | 0.00 | 0.00 | 0.00 | 79 | 1017.2 |
| 20260902160805 | 81 | 116 | 2.0 | 5.0 | 0.00 | 0.00 | 0.00 | 79 | 1017.3 |
| 20260902160305 | 81 | 99 | 2.0 | 8.0 | 0.00 | 0.00 | 0.00 | 78 | 1017.1 |
| 20260902155804 | 81 | 129 | 5.0 | 8.0 | 0.00 | 0.00 | 0.00 | 78 | 1017.1 |
| 20260902154805 | 81 | 160 | 5.0 | 9.0 | 0.00 | 0.00 | 0.00 | 78 | 1016.9 |
| 20260902154304 | 81 | 127 | 6.0 | 12.0 | 0.00 | 0.00 | 0.00 | 78 | 1016.9 |
| 20260902153304 | 81 | 148 | 6.0 | 10.0 | 0.00 | 0.00 | 0.00 | 78 | 1016.8 |
| 20260902152805 | 81 | 145 | 4.0 | 12.0 | 0.00 | 0.00 | 0.00 | 79 | 1016.7 |
| 20260902152308 | 81 | 165 | 6.0 | 12.0 | 0.00 | 0.00 | 0.00 | 78 | 1016.7 |
| 20260902151804 | 81 | 140 | 6.0 | 13.0 | 0.00 | 0.00 | 0.00 | 80 | 1016.7 |
| 20260902151305 | 80 | 145 | 4.0 | 10.0 | 0.00 | 0.00 | 0.00 | 81 | 1016.7 |
| 20260902150804 | 80 | 90 | 3.0 | 12.0 | 0.00 | 0.00 | 0.00 | 82 | 1016.8 |
| 20260902150304 | 80 | 105 | 8.0 | 10.0 | 0.00 | 0.00 | 0.00 | 81 | 1016.8 |
| 20260902145805 | 80 | 87 | 6.0 | 12.0 | 0.00 | 0.00 | 0.00 | 82 | 1016.8 |
| 20260902145306 | 80 | 125 | 5.0 | 7.0 | 0.00 | 0.00 | 0.00 | 82 | 1016.9 |
| 20260902144304 | 79 | 83 | 4.0 | 10.0 | 0.00 | 0.00 | 0.00 | 83 | 1016.9 |
| 20260902143805 | 79 | 141 | 7.0 | 13.0 | 0.00 | 0.00 | 0.00 | 83 | 1016.9 |